Location: D?uga
(50.2667°N, 19.7833°E)
Time: 19:52:59
(UTC+00:00)

Daily predictions for brighter satellites

Satellite Brightness Start Highest point End
(mag) Time Altitude Azimuth Time Altitude Azimuth Time Altitude Azimuth
Cosmos 2100 Rocket 4.3 15:18:36 10° SSW 15:24:45 71° WNW 15:30:54 10° N
UNK 4.3 15:23:31 10° NNE 15:27:50 37° E 15:32:07 10° SSE
Cosmos 2221 Rocket 4.4 15:24:39 10° NNW 15:29:03 58° W 15:33:24 10° S
Meteor 1-28 Rocket 2.9 15:29:18 10° NNE 15:32:39 61° ESE 15:35:59 10° S
SJ-12 4.3 15:32:41 10° SE 15:36:09 35° ENE 15:39:38 10° N
Cosmos 1269 Rocket 4.0 15:33:04 10° SSW 15:38:18 76° ESE 15:43:36 10° NNE
CORIOLIS 4.1 15:34:16 10° SSE 15:39:33 66° ENE 15:44:52 10° N
IRS-1C 4.2 15:36:10 10° SE 15:41:21 55° ENE 15:46:33 10° N
BREEZE-M DEB (TANK) 3.5 15:44:42 10° SSW 15:46:50 31° SE 15:50:40 12° ENE
Cosmos 1943 Rocket 2.7 15:42:48 10° S 15:47:59 40° ESE 15:53:09 10° NE
Cosmos 2233 Rocket 4.0 15:41:49 10° S 15:48:06 79° E 15:54:27 10° NNE
Thor Agena Rocket 3.7 15:43:57 10° SSE 15:49:14 84° WSW 15:54:32 10° NNW
ATLAS 2AS CENTAUR R/B 3.6 15:43:29 10° NW 15:49:28 31° NNE 15:54:48 12° ENE
Cosmos 1725 Rocket 4.3 15:44:04 10° SSW 15:50:21 74° WNW 15:56:42 10° N
COSMO-SKYMED 1 4.2 15:50:28 12° ENE 15:51:14 13° E 15:53:08 10° ESE
ATLAS CENTAUR R/B 3.0 15:49:06 10° W 15:51:41 19° NNW 15:54:16 10° NNE
Cosmos 841 Rocket 4.4 15:47:48 10° N 15:52:16 27° NE 15:56:42 10° ESE
Resurs 01 Rocket 3.6 15:52:46 10° NE 15:52:46 10° NE 15:53:11 10° NE
Cosmos 2251 Rocket 4.4 15:48:55 10° SSE 15:53:24 29° E 15:57:56 10° NE
Cosmos 1782 Rocket 3.6 15:49:21 10° S 15:53:48 88° W 15:58:14 10° N
Cosmos 2061 Rocket 4.0 15:49:10 10° S 15:55:26 80° E 16:01:42 10° NNE
Cosmos 2082 Rocket 2.4 15:50:11 10° NNW 15:55:39 50° NE 16:01:07 10° SE
Cosmos 1300 Rocket 3.8 15:51:59 10° SSW 15:56:21 76° WNW 16:00:44 10° N
Cosmos 2058 3.4 15:54:16 10° N 15:57:54 33° ENE 16:01:32 10° SE
Cosmos 2278 Rocket 2.5 15:55:42 10° S 16:01:05 47° ESE 16:06:29 10° NE
Cosmos 1346 Rocket 4.5 16:03:01 10° NNE 16:04:11 14° NE 16:04:11 14° NE
Cosmos 468 Rocket 4.0 16:01:44 10° NNW 16:06:53 57° ENE 16:11:57 10° SE
MOS 1 Rocket 3.3 16:02:56 10° SE 16:07:06 48° ENE 16:11:30 10° N
USA 215 3.6 16:02:50 10° SE 16:09:21 71° SW 16:15:54 10° WNW
SAR-Lupe-1 4.0 16:06:39 10° SSE 16:10:13 90° W 16:13:50 10° NNW
Cosmos 1975 Rocket 3.4 16:05:56 10° NNW 16:10:17 69° W 16:14:37 10° S
ARIANE 5 R/B 2.5 16:05:54 10° SSE 16:10:52 88° WSW 16:15:55 10° NNW
AQUARIUS 4.0 16:07:33 10° SSE 16:11:56 70° ENE 16:16:20 10° N
Cosmos 1602 3.4 16:09:33 10° N 16:12:30 43° ENE 16:15:26 10° SSE
ATLAS 5 CENTAUR R/B 3.9 16:09:57 10° WNW 16:13:51 30° WSW 16:18:33 10° S
NOSS 3 (A) 3.2 16:14:18 10° SW 16:15:42 59° SSW 16:15:42 59° SSW
CZ-2D R/B 3.9 16:12:07 10° SE 16:16:00 40° ENE 16:19:58 10° N
Cosmos 2344 4.0 16:12:07 10° NW 16:19:31 53° NE 16:28:28 12° ESE
SAR-Lupe-4 4.2 16:16:30 10° S 16:20:02 59° WSW 16:23:35 10° NNW
Cosmos 1190 Rocket 4.4 16:16:22 10° S 16:21:17 41° ESE 16:25:14 15° NE
Cosmos 1862 3.4 16:18:04 10° N 16:21:32 40° ENE 16:24:59 10° SSE
PSLV R/B 4.0 16:17:56 10° SE 16:21:32 32° ENE 16:25:09 10° N
Cosmos 2151 Rocket 4.1 16:19:17 10° SSE 16:23:26 38° E 16:27:36 10° NNE
Geosat FO 3.9 16:24:49 15° SE 16:27:07 66° ENE 16:29:59 10° NNW
USA 281 4.1 16:24:36 20° E 16:27:35 28° NE 16:32:59 10° NNW
CZ-2D R/B 3.6 16:26:16 10° S 16:29:20 51° W 16:32:26 10° NNW
ISS -3.7 16:26:28 10° WSW 16:29:48 67° SSE 16:30:57 37° E
SKYMED 2 3.9 16:26:37 13° NNE 16:30:19 42° E 16:34:26 10° S
Okean 1 Rocket 3.8 16:26:34 10° SSE 16:30:22 30° E 16:31:18 27° ENE
COSMOS 2406 3.3 16:25:35 10° NNW 16:31:09 52° NE 16:36:42 10° SE
Cosmos 407 Rocket 3.5 16:26:27 10° SSW 16:31:39 85° WNW 16:36:49 10° NNE
Cosmos 1812 1.8 16:30:11 10° S 16:33:05 79° E 16:34:33 26° NNE
Cosmos 1954 Rocket 4.4 16:28:48 10° S 16:33:44 42° ESE 16:36:42 22° NE
IRS-P3 4.2 16:29:01 10° SSE 16:34:21 80° WSW 16:39:43 10° NNW
Sich 1 Rocket 4.2 16:31:41 10° SSE 16:35:47 35° E 16:37:30 26° NE
Cosmos 2026 Rocket 4.4 16:30:27 10° N 16:36:06 38° ENE 16:41:45 10° SE
SL-19 R/B 4.2 16:31:19 10° SE 16:36:21 53° ENE 16:41:27 10° N
Cosmos 1072 Rocket 4.4 16:33:02 10° S 16:39:04 64° E 16:45:07 10° NNE
BlueWalker 3 4.3 16:41:39 10° SSE 16:41:50 10° SSE 16:41:50 10° SSE
Cosmos 44 Rocket 3.2 16:40:08 10° SW 16:44:56 83° SE 16:47:37 27° NE
Cosmos 540 Rocket 4.4 16:40:11 10° NNW 16:45:08 49° WSW 16:50:02 10° S
SPOT 1/Viking Rocket 3.4 16:41:04 10° SSE 16:46:14 81° ENE 16:51:28 10° NNW
SJ 16-02 1.4 16:42:24 10° S 16:46:35 51° ESE 16:47:54 37° NE
YAOGAN 1 2.4 16:43:54 10° SSE 16:48:05 62° ENE 16:52:19 10° N
Cosmos 1869 4.1 16:44:50 10° SSW 16:48:12 43° WNW 16:51:35 10° N
Cosmos 2297 Rocket 4.3 16:50:09 10° N 16:50:38 10° NNE 16:51:07 10° NNE
SL-16 R/B 4.0 16:45:50 10° N 16:51:24 35° WNW 16:56:57 10° WSW
Meteor 2-3 Rocket 3.8 16:48:47 10° N 16:54:23 54° ENE 16:59:53 10° SSE
Spot 4 Rocket 3.9 16:52:05 10° SSE 16:57:11 86° ENE 17:02:19 10° NNW
Nadezhda 4 Rocket 3.9 16:52:18 10° N 16:58:39 88° E 17:04:52 10° S
Aureole 3 Rocket 3.3 16:58:15 10° SSW 17:01:11 45° WNW 17:03:44 15° N
Resurs 1-3 3.4 16:58:08 10° SSE 17:02:25 80° ENE 17:06:45 10° NNW
CZ-4C R/B 3.8 16:59:47 10° WNW 17:04:07 24° N 17:06:53 18° NNE
Cosmos 1627 Rocket 4.4 17:02:46 10° N 17:08:51 60° ENE 17:14:57 10° SSE
Cosmos 304 Rocket 3.6 17:04:54 10° SSW 17:09:35 68° ESE 17:10:27 55° ENE
Cosmos 1400 Rocket 2.6 17:06:49 10° SSW 17:10:37 84° WNW 17:11:08 65° N
Cosmos 371 Rocket 3.1 17:06:29 10° SSW 17:11:14 67° ESE 17:12:04 55° ENE
Cosmos 1536 Rocket 4.1 17:07:47 10° NNW 17:12:10 60° W 17:16:29 10° S
Cosmos 2195 Rocket 4.4 17:06:13 10° N 17:12:33 78° E 17:18:53 10° SSE
Helios 1A Rocket 3.9 17:16:48 29° SSW 17:16:48 29° SSW 17:18:35 10° SSW
Okean 2 Rocket 3.0 17:13:31 10° SSW 17:17:55 80° W 17:20:03 30° N
NOAA 6 4.0 17:20:15 10° SSE 17:25:25 84° WSW 17:30:35 10° NNW
Geosat 3.8 17:25:22 57° SE 17:26:25 84° ENE 17:31:28 10° NNW
COSMO-SKYMED 1 2.5 17:26:49 71° NW 17:27:05 75° WNW 17:31:11 10° SSW
Resurs 01 Rocket 3.1 17:30:11 27° N 17:30:11 27° N 17:32:14 10° N
Cosmos 1943 Rocket 3.2 17:26:23 10° WSW 17:31:42 42° NW 17:35:17 19° N
Cosmos 841 Rocket 4.0 17:29:16 10° NNW 17:34:26 59° WSW 17:38:54 14° S
Cosmos 2251 Rocket 4.3 17:30:14 10° SW 17:35:21 49° WNW 17:38:36 22° N
Cosmos 2082 Rocket 3.8 17:34:35 10° NW 17:39:32 32° WSW 17:44:27 10° SSW
BREEZE-M DEB (TANK) 2.9 17:36:26 10° W 17:39:37 82° S 17:39:49 79° SE
ATLAS 2AS CENTAUR R/B 2.5 17:34:42 10° NW 17:41:30 69° NE 17:42:14 64° E
Cosmos 2278 Rocket 3.5 17:40:04 10° WSW 17:45:18 37° NW 17:48:33 21° N
Cosmos 1634 Rocket 4.0 17:44:46 10° S 17:57:50 - NNE 17:50:02 63° SSE
Meteor 2-1 Rocket 4.5 17:46:28 10° SSW 17:52:23 73° WNW 17:57:32 14° N
Cosmos 2369 Rocket 4.0 17:48:46 10° S 17:50:09 18° S 17:50:09 18° S
ISS -0.5 18:03:17 10° W 18:03:52 14° W 18:03:52 14° W
Cosmos 1656 Rocket 4.1 18:03:25 10° SW 18:07:59 59° WSW 18:07:59 59° WSW
USA 281 3.1 18:11:29 87° WSW 18:11:29 87° WSW 18:18:05 10° NNW
SJ 16-02 3.6 18:21:36 10° WSW 18:24:28 22° WNW 18:24:28 22° WNW
Cosmos 2344 4.4 18:26:22 10° NW 18:34:13 57° WSW 18:38:34 35° S
CZ-4C R/B 4.2 18:49:02 10° NW 18:51:49 23° NNW 18:51:49 23° NNW
ATLAS 2AS CENTAUR R/B 4.3 19:26:04 10° NW 19:29:41 27° W 19:29:41 27° W
